| time (UTC) | temp F | wind direction | speed MPH | gust MPH | rain 1hr in | rain 24hr in | rain mn in | humidity % | barometer mb |
| 20260506134418 | 33 | 192 | 0.0 | 0.0 | 0.00 | 0.51 | 0.16 | 98 | 1018.7 |
| 20260506134312 | 33 | 192 | 0.0 | 0.0 | 0.00 | 0.51 | 0.16 | 98 | 1018.7 |
| 20260506133424 | 33 | 192 | 0.0 | 0.0 | 0.00 | 0.51 | 0.16 | 98 | 1018.5 |
| 20260506133316 | 33 | 192 | 0.0 | 0.0 | 0.00 | 0.51 | 0.16 | 98 | 1018.5 |
| 20260506132427 | 33 | 192 | 0.0 | 0.0 | 0.00 | 0.51 | 0.16 | 98 | 1018.4 |
| 20260506132320 | 33 | 192 | 0.0 | 0.0 | 0.00 | 0.51 | 0.16 | 98 | 1018.4 |
| 20260506131411 | 33 | 192 | 0.0 | 0.0 | 0.00 | 0.51 | 0.16 | 98 | 1018.3 |
| 20260506131323 | 33 | 192 | 0.0 | 0.0 | 0.00 | 0.51 | 0.16 | 98 | 1018.3 |
| 20260506130414 | 33 | 40 | 0.0 | 0.0 | 0.00 | 0.51 | 0.16 | 98 | 1018.2 |
| 20260506130324 | 33 | 40 | 0.0 | 0.0 | 0.00 | 0.51 | 0.16 | 98 | 1018.1 |
| 20260506125437 | 33 | 40 | 0.0 | 0.0 | 0.00 | 0.51 | 0.16 | 98 | 1018.0 |
| 20260506125310 | 33 | 40 | 0.0 | 0.0 | 0.00 | 0.51 | 0.16 | 98 | 1018.0 |
| 20260506124419 | 33 | 40 | 0.0 | 0.0 | 0.00 | 0.51 | 0.16 | 98 | 1017.8 |
| 20260506124312 | 33 | 40 | 0.0 | 0.0 | 0.00 | 0.51 | 0.16 | 98 | 1017.8 |
| 20260506123424 | 33 | 74 | 0.0 | 0.0 | 0.00 | 0.51 | 0.16 | 98 | 1017.5 |
| 20260506123317 | 33 | 74 | 0.0 | 0.0 | 0.00 | 0.51 | 0.16 | 98 | 1017.5 |
| 20260506122409 | 33 | 150 | 0.0 | 0.0 | 0.00 | 0.51 | 0.16 | 98 | 1017.4 |
| 20260506122321 | 33 | 150 | 0.0 | 0.0 | 0.00 | 0.51 | 0.16 | 98 | 1017.4 |
| 20260506121414 | 33 | 150 | 0.0 | 0.0 | 0.00 | 0.51 | 0.16 | 98 | 1017.2 |
| 20260506121309 | 33 | 150 | 0.0 | 0.0 | 0.00 | 0.51 | 0.16 | 98 | 1017.1 |
| 20260506120421 | 33 | 150 | 0.0 | 0.0 | 0.00 | 0.51 | 0.16 | 98 | 1017.1 |
| 20260506120311 | 33 | 150 | 0.0 | 0.0 | 0.00 | 0.51 | 0.16 | 98 | 1017.1 |
| 20260506115422 | 33 | 151 | 0.0 | 0.0 | 0.00 | 0.51 | 0.16 | 98 | 1017.1 |
| 20260506115313 | 33 | 151 | 0.0 | 0.0 | 0.00 | 0.51 | 0.16 | 98 | 1017.1 |
| 20260506114444 | 33 | 151 | 0.0 | 0.0 | 0.00 | 0.51 | 0.16 | 98 | 1017.0 |
| 20260506114316 | 33 | 151 | 0.0 | 0.0 | 0.00 | 0.51 | 0.16 | 98 | 1016.9 |
| 20260506113409 | 33 | 151 | 0.0 | 0.0 | 0.00 | 0.51 | 0.16 | 98 | 1016.9 |
| 20260506113321 | 33 | 151 | 0.0 | 0.0 | 0.00 | 0.51 | 0.16 | 98 | 1016.9 |
| 20260506112412 | 33 | 151 | 0.0 | 0.0 | 0.01 | 0.51 | 0.16 | 98 | 1016.8 |
| 20260506112329 | 33 | 151 | 0.0 | 0.0 | 0.01 | 0.51 | 0.16 | 98 | 1016.7 |
| 20260506111418 | 33 | 151 | 0.0 | 0.0 | 0.01 | 0.51 | 0.16 | 97 | 1016.7 |
| 20260506111332 | 33 | 151 | 0.0 | 0.0 | 0.01 | 0.51 | 0.16 | 97 | 1016.7 |
| 20260506110423 | 33 | 151 | 0.0 | 0.0 | 0.01 | 0.51 | 0.16 | 97 | 1016.6 |
| 20260506110314 | 33 | 151 | 0.0 | 0.0 | 0.01 | 0.51 | 0.16 | 97 | 1016.6 |
| 20260506105422 | 33 | 151 | 0.0 | 1.0 | 0.01 | 0.51 | 0.16 | 97 | 1016.5 |
| 20260506105336 | 33 | 151 | 0.0 | 1.0 | 0.01 | 0.51 | 0.16 | 97 | 1016.5 |
| 20260506104426 | 33 | 151 | 0.0 | 1.0 | 0.02 | 0.51 | 0.16 | 97 | 1016.5 |
| 20260506104338 | 33 | 151 | 0.0 | 1.0 | 0.02 | 0.51 | 0.16 | 97 | 1016.5 |
| 20260506103409 | 33 | 151 | 0.0 | 2.0 | 0.03 | 0.51 | 0.16 | 97 | 1016.7 |
| 20260506103327 | 33 | 151 | 0.0 | 3.0 | 0.03 | 0.51 | 0.16 | 96 | 1016.7 |
| 20260506102418 | 33 | 153 | 2.0 | 3.0 | 0.04 | 0.50 | 0.15 | 96 | 1016.5 |
| 20260506102311 | 34 | 155 | 2.0 | 3.0 | 0.04 | 0.50 | 0.15 | 96 | 1016.5 |
| 20260506101422 | 34 | 146 | 2.0 | 3.0 | 0.05 | 0.50 | 0.15 | 96 | 1016.5 |
| 20260506101314 | 34 | 148 | 2.0 | 3.0 | 0.05 | 0.50 | 0.15 | 96 | 1016.5 |
| 20260506100427 | 34 | 140 | 3.0 | 3.0 | 0.05 | 0.50 | 0.15 | 96 | 1016.4 |
| 20260506100339 | 34 | 150 | 3.0 | 3.0 | 0.05 | 0.50 | 0.15 | 96 | 1016.4 |
| 20260506095429 | 35 | 148 | 2.0 | 4.0 | 0.06 | 0.50 | 0.15 | 96 | 1016.4 |
| 20260506095339 | 35 | 147 | 2.0 | 4.0 | 0.06 | 0.50 | 0.15 | 96 | 1016.4 |
| 20260506094409 | 35 | 145 | 2.0 | 3.0 | 0.06 | 0.49 | 0.14 | 96 | 1016.3 |
| 20260506094321 | 36 | 144 | 2.0 | 3.0 | 0.06 | 0.49 | 0.14 | 96 | 1016.3 |
| 20260506093432 | 36 | 136 | 2.0 | 3.0 | 0.06 | 0.48 | 0.13 | 96 | 1016.2 |
| 20260506093327 | 36 | 136 | 2.0 | 3.0 | 0.06 | 0.48 | 0.13 | 96 | 1016.2 |
| 20260506092419 | 36 | 88 | 1.0 | 3.0 | 0.05 | 0.46 | 0.11 | 96 | 1016.1 |
| 20260506092312 | 36 | 86 | 2.0 | 3.0 | 0.05 | 0.46 | 0.11 | 96 | 1016.1 |
| 20260506091424 | 36 | 153 | 1.0 | 3.0 | 0.04 | 0.45 | 0.10 | 97 | 1016.0 |
| 20260506091337 | 36 | 106 | 1.0 | 3.0 | 0.04 | 0.45 | 0.10 | 97 | 1016.0 |
| 20260506090427 | 36 | 80 | 3.0 | 5.0 | 0.04 | 0.45 | 0.10 | 96 | 1015.8 |
| 20260506090319 | 36 | 65 | 2.0 | 5.0 | 0.04 | 0.45 | 0.10 | 97 | 1015.8 |
| 20260506085410 | 36 | 179 | 2.0 | 5.0 | 0.04 | 0.44 | 0.09 | 96 | 1015.7 |
| 20260506085322 | 37 | 139 | 2.0 | 5.0 | 0.04 | 0.44 | 0.09 | 96 | 1015.8 |
| 20260506084419 | 37 | 142 | 2.0 | 7.0 | 0.03 | 0.43 | 0.08 | 96 | 1015.6 |
| 20260506084331 | 37 | 53 | 3.0 | 7.0 | 0.03 | 0.43 | 0.08 | 96 | 1015.6 |
| 20260506083441 | 37 | 162 | 3.0 | 6.0 | 0.02 | 0.42 | 0.07 | 97 | 1015.5 |
| 20260506083311 | 37 | 274 | 3.0 | 6.0 | 0.02 | 0.42 | 0.07 | 97 | 1015.5 |
| 20260506082421 | 37 | 159 | 3.0 | 5.0 | 0.02 | 0.41 | 0.06 | 97 | 1015.5 |
| 20260506082313 | 37 | 320 | 2.0 | 7.0 | 0.02 | 0.41 | 0.06 | 97 | 1015.5 |
| 20260506081424 | 37 | 169 | 3.0 | 8.0 | 0.02 | 0.41 | 0.06 | 97 | 1015.4 |
| 20260506081317 | 37 | 115 | 3.0 | 8.0 | 0.02 | 0.41 | 0.06 | 97 | 1015.5 |
| 20260506080409 | 37 | 132 | 2.0 | 5.0 | 0.03 | 0.41 | 0.06 | 96 | 1015.4 |
| 20260506080326 | 37 | 277 | 3.0 | 5.0 | 0.03 | 0.41 | 0.06 | 96 | 1015.4 |
| 20260506073424 | 38 | 96 | 3.0 | 7.0 | 0.04 | 0.40 | 0.05 | 97 | 1015.6 |
| 20260506073335 | 38 | 82 | 2.0 | 7.0 | 0.04 | 0.40 | 0.05 | 97 | 1015.7 |
| 20260506072446 | 38 | 155 | 2.0 | 8.0 | 0.03 | 0.39 | 0.04 | 97 | 1015.8 |
| 20260506072336 | 38 | 144 | 3.0 | 9.0 | 0.03 | 0.39 | 0.04 | 97 | 1015.8 |
| 20260506071426 | 38 | 145 | 5.0 | 9.0 | 0.04 | 0.39 | 0.04 | 97 | 1015.8 |
| 20260506071322 | 38 | 175 | 3.0 | 9.0 | 0.04 | 0.39 | 0.04 | 96 | 1015.9 |
| 20260506070415 | 38 | 156 | 1.0 | 6.0 | 0.03 | 0.38 | 0.03 | 96 | 1015.9 |
| 20260506070327 | 38 | 100 | 2.0 | 6.0 | 0.03 | 0.38 | 0.03 | 96 | 1015.9 |
| 20260506062415 | 38 | 263 | 2.0 | 7.0 | 0.02 | 0.36 | 0.01 | 96 | 1015.9 |
| 20260506062348 | 38 | 186 | 2.0 | 7.0 | 0.02 | 0.36 | 0.01 | 96 | 1015.9 |
| 20260506061418 | 38 | 236 | 3.0 | 8.0 | 0.01 | 0.35 | 0.00 | 96 | 1015.8 |
| 20260506061311 | 38 | 144 | 3.0 | 8.0 | 0.01 | 0.35 | 0.00 | 96 | 1015.8 |
| 20260506060423 | 38 | 158 | 3.0 | 9.0 | 0.01 | 0.35 | 0.00 | 96 | 1015.7 |
| 20260506060315 | 38 | 153 | 3.0 | 9.0 | 0.01 | 0.35 | 0.00 | 96 | 1015.7 |
| 20260506051316 | 39 | 142 | 2.0 | 5.0 | 0.05 | 0.34 | 0.34 | 96 | 1015.5 |
| 20260506050427 | 39 | 109 | 3.0 | 7.0 | 0.06 | 0.34 | 0.34 | 96 | 1015.4 |
| 20260506050320 | 39 | 98 | 3.0 | 7.0 | 0.06 | 0.34 | 0.34 | 96 | 1015.4 |
| 20260506044421 | 39 | 192 | 3.0 | 8.0 | 0.08 | 0.33 | 0.33 | 97 | 1015.3 |
| 20260506044313 | 39 | 137 | 3.0 | 8.0 | 0.08 | 0.33 | 0.33 | 97 | 1015.3 |
| 20260506043425 | 39 | 297 | 3.0 | 7.0 | 0.08 | 0.32 | 0.32 | 97 | 1015.2 |
| 20260506043339 | 40 | 140 | 4.0 | 7.0 | 0.08 | 0.32 | 0.32 | 97 | 1015.3 |
| 20260506042409 | 40 | 148 | 3.0 | 5.0 | 0.08 | 0.31 | 0.31 | 97 | 1015.4 |
| 20260506042323 | 40 | 23 | 3.0 | 5.0 | 0.08 | 0.31 | 0.31 | 97 | 1015.3 |
| 20260506041413 | 40 | 136 | 3.0 | 7.0 | 0.07 | 0.29 | 0.29 | 97 | 1015.4 |
| 20260506041328 | 40 | 129 | 3.0 | 7.0 | 0.07 | 0.29 | 0.29 | 97 | 1015.4 |
| 20260506040417 | 40 | 102 | 3.0 | 8.0 | 0.07 | 0.28 | 0.28 | 97 | 1015.2 |
| 20260506040309 | 40 | 123 | 3.0 | 8.0 | 0.07 | 0.28 | 0.28 | 97 | 1015.2 |
| 20260506035422 | 40 | 86 | 6.0 | 9.0 | 0.07 | 0.27 | 0.27 | 97 | 1015.1 |
| 20260506035335 | 40 | 78 | 5.0 | 9.0 | 0.07 | 0.27 | 0.27 | 97 | 1015.1 |
| 20260506034444 | 40 | 74 | 6.0 | 10.0 | 0.07 | 0.25 | 0.25 | 97 | 1015.1 |
| 20260506034315 | 40 | 74 | 6.0 | 10.0 | 0.07 | 0.25 | 0.25 | 97 | 1015.1 |
| 20260506033427 | 40 | 81 | 7.0 | 11.0 | 0.08 | 0.24 | 0.24 | 97 | 1015.1 |
| 20260506033320 | 40 | 80 | 5.0 | 11.0 | 0.08 | 0.24 | 0.24 | 97 | 1015.2 |
| 20260506032411 | 40 | 53 | 10.0 | 13.0 | 0.08 | 0.23 | 0.23 | 97 | 1015.0 |
| 20260506032328 | 40 | 64 | 9.0 | 13.0 | 0.08 | 0.23 | 0.23 | 97 | 1015.0 |
| 20260506031436 | 40 | 65 | 7.0 | 11.0 | 0.08 | 0.22 | 0.22 | 97 | 1014.8 |
| 20260506031328 | 40 | 49 | 6.0 | 10.0 | 0.08 | 0.22 | 0.22 | 97 | 1014.8 |
| 20260506030437 | 40 | 44 | 5.0 | 11.0 | 0.07 | 0.21 | 0.21 | 96 | 1014.7 |
| 20260506030347 | 40 | 42 | 7.0 | 11.0 | 0.07 | 0.21 | 0.21 | 96 | 1014.6 |
| 20260506025417 | 40 | 54 | 6.0 | 11.0 | 0.06 | 0.20 | 0.20 | 96 | 1014.5 |
| 20260506025330 | 40 | 60 | 6.0 | 11.0 | 0.06 | 0.20 | 0.20 | 96 | 1014.4 |
| 20260506024420 | 41 | 53 | 8.0 | 12.0 | 0.05 | 0.18 | 0.18 | 96 | 1014.3 |
| 20260506024332 | 41 | 59 | 7.0 | 11.0 | 0.05 | 0.18 | 0.18 | 96 | 1014.3 |
| 20260506023422 | 41 | 55 | 8.0 | 10.0 | 0.03 | 0.16 | 0.16 | 96 | 1014.2 |
| 20260506023336 | 41 | 54 | 7.0 | 11.0 | 0.03 | 0.16 | 0.16 | 96 | 1014.2 |
| 20260506022424 | 41 | 54 | 9.0 | 11.0 | 0.02 | 0.15 | 0.15 | 96 | 1013.8 |
| 20260506022342 | 41 | 56 | 9.0 | 11.0 | 0.02 | 0.15 | 0.15 | 96 | 1013.8 |
| 20260506021411 | 41 | 55 | 8.0 | 13.0 | 0.01 | 0.14 | 0.14 | 95 | 1013.6 |
| 20260506021323 | 41 | 66 | 8.0 | 13.0 | 0.01 | 0.14 | 0.14 | 95 | 1013.4 |
| 20260506020414 | 41 | 59 | 5.0 | 10.0 | 0.01 | 0.14 | 0.14 | 95 | 1013.1 |
| 20260506020348 | 41 | 51 | 6.0 | 10.0 | 0.01 | 0.14 | 0.14 | 95 | 1013.1 |
| 20260506015439 | 41 | 84 | 6.0 | 9.0 | 0.01 | 0.14 | 0.14 | 95 | 1012.9 |
| 20260506015311 | 41 | 73 | 5.0 | 9.0 | 0.01 | 0.14 | 0.14 | 95 | 1013.0 |
| 20260506014423 | 41 | 53 | 5.0 | 9.0 | 0.00 | 0.13 | 0.13 | 94 | 1012.9 |
| 20260506014315 | 41 | 92 | 5.0 | 9.0 | 0.00 | 0.13 | 0.13 | 94 | 1012.9 |
| 20260506013413 | 41 | 51 | 6.0 | 10.0 | 0.00 | 0.13 | 0.13 | 93 | 1012.8 |
| 20260506013345 | 41 | 62 | 7.0 | 10.0 | 0.00 | 0.13 | 0.13 | 93 | 1012.9 |
| 20260506012416 | 41 | 84 | 7.0 | 10.0 | 0.00 | 0.13 | 0.13 | 93 | 1012.9 |
| 20260506012327 | 41 | 71 | 6.0 | 11.0 | 0.00 | 0.13 | 0.13 | 93 | 1012.9 |
| 20260506011439 | 41 | 80 | 5.0 | 10.0 | 0.00 | 0.13 | 0.13 | 93 | 1012.7 |
| 20260506011310 | 41 | 74 | 5.0 | 10.0 | 0.00 | 0.13 | 0.13 | 93 | 1012.7 |
| 20260506010422 | 41 | 91 | 7.0 | 9.0 | 0.00 | 0.13 | 0.13 | 92 | 1012.7 |
| 20260506010334 | 41 | 89 | 6.0 | 9.0 | 0.00 | 0.13 | 0.13 | 92 | 1012.8 |
| 20260506005425 | 41 | 75 | 8.0 | 10.0 | 0.00 | 0.13 | 0.13 | 91 | 1012.8 |
| 20260506005339 | 41 | 67 | 8.0 | 10.0 | 0.00 | 0.13 | 0.13 | 91 | 1012.8 |
| 20260506004428 | 42 | 80 | 7.0 | 10.0 | 0.00 | 0.13 | 0.13 | 91 | 1012.8 |
| 20260506004345 | 42 | 75 | 6.0 | 10.0 | 0.00 | 0.13 | 0.13 | 91 | 1012.8 |
| 20260506003416 | 42 | 67 | 4.0 | 8.0 | 0.00 | 0.13 | 0.13 | 92 | 1012.9 |
| 20260506003327 | 42 | 74 | 3.0 | 8.0 | 0.00 | 0.13 | 0.13 | 92 | 1012.9 |
| 20260506002417 | 42 | 94 | 6.0 | 9.0 | 0.00 | 0.13 | 0.13 | 91 | 1012.8 |
| 20260506002331 | 42 | 86 | 6.0 | 9.0 | 0.00 | 0.13 | 0.13 | 91 | 1012.8 |
| 20260506001420 | 42 | 76 | 5.0 | 10.0 | 0.00 | 0.13 | 0.13 | 91 | 1012.7 |
| 20260506001312 | 42 | 77 | 6.0 | 10.0 | 0.00 | 0.13 | 0.13 | 91 | 1012.7 |
| 20260506000424 | 42 | 98 | 5.0 | 9.0 | 0.00 | 0.13 | 0.13 | 91 | 1012.6 |
| 20260506000322 | 42 | 86 | 5.0 | 9.0 | 0.00 | 0.13 | 0.13 | 91 | 1012.6 |
| 20260505235413 | 42 | 84 | 5.0 | 8.0 | 0.00 | 0.13 | 0.13 | 91 | 1012.8 |
| 20260505235325 | 42 | 68 | 4.0 | 8.0 | 0.00 | 0.13 | 0.13 | 90 | 1012.7 |
| 20260505234417 | 42 | 87 | 3.0 | 8.0 | 0.00 | 0.13 | 0.13 | 90 | 1012.9 |
| 20260505234310 | 42 | 67 | 3.0 | 8.0 | 0.00 | 0.13 | 0.13 | 90 | 1013.0 |
| 20260505233423 | 42 | 65 | 5.0 | 9.0 | 0.00 | 0.13 | 0.13 | 89 | 1012.8 |
| 20260505233316 | 42 | 92 | 5.0 | 9.0 | 0.00 | 0.13 | 0.13 | 89 | 1012.8 |
| 20260505232427 | 42 | 76 | 7.0 | 9.0 | 0.00 | 0.13 | 0.13 | 90 | 1012.6 |
| 20260505232321 | 42 | 76 | 6.0 | 9.0 | 0.00 | 0.13 | 0.13 | 90 | 1012.6 |
| 20260505231433 | 42 | 78 | 7.0 | 11.0 | 0.00 | 0.13 | 0.13 | 89 | 1012.6 |
| 20260505231326 | 42 | 85 | 7.0 | 11.0 | 0.00 | 0.13 | 0.13 | 89 | 1012.6 |
| 20260505230437 | 42 | 107 | 6.0 | 13.0 | 0.00 | 0.13 | 0.13 | 90 | 1012.5 |
| 20260505230328 | 42 | 84 | 7.0 | 13.0 | 0.00 | 0.13 | 0.13 | 89 | 1012.6 |
| 20260505225420 | 42 | 56 | 9.0 | 12.0 | 0.00 | 0.13 | 0.13 | 91 | 1012.4 |
| 20260505225313 | 42 | 77 | 8.0 | 12.0 | 0.00 | 0.13 | 0.13 | 91 | 1012.4 |
| 20260505224445 | 42 | 73 | 8.0 | 12.0 | 0.01 | 0.13 | 0.13 | 90 | 1012.5 |
| 20260505224317 | 42 | 90 | 6.0 | 12.0 | 0.01 | 0.13 | 0.13 | 89 | 1012.5 |
| 20260505223429 | 42 | 78 | 8.0 | 14.0 | 0.02 | 0.13 | 0.13 | 89 | 1012.5 |
| 20260505223342 | 42 | 76 | 10.0 | 14.0 | 0.03 | 0.13 | 0.13 | 89 | 1012.5 |
| 20260505222417 | 42 | 78 | 6.0 | 11.0 | 0.05 | 0.13 | 0.13 | 90 | 1012.7 |
| 20260505222350 | 42 | 106 | 5.0 | 11.0 | 0.05 | 0.13 | 0.13 | 90 | 1012.7 |
| 20260505221440 | 42 | 84 | 6.0 | 11.0 | 0.07 | 0.13 | 0.13 | 90 | 1012.8 |
| 20260505221312 | 42 | 72 | 6.0 | 11.0 | 0.07 | 0.13 | 0.13 | 90 | 1012.8 |
| 20260505220424 | 42 | 78 | 6.0 | 10.0 | 0.08 | 0.13 | 0.13 | 90 | 1012.8 |
| 20260505220317 | 42 | 77 | 5.0 | 10.0 | 0.08 | 0.13 | 0.13 | 90 | 1012.8 |
| 20260505215447 | 42 | 69 | 7.0 | 11.0 | 0.08 | 0.13 | 0.13 | 90 | 1013.1 |
| 20260505215319 | 42 | 61 | 7.0 | 11.0 | 0.08 | 0.13 | 0.13 | 90 | 1013.0 |
| 20260505214412 | 41 | 99 | 7.0 | 10.0 | 0.07 | 0.12 | 0.12 | 89 | 1013.1 |
| 20260505214324 | 41 | 94 | 7.0 | 10.0 | 0.07 | 0.12 | 0.12 | 89 | 1013.1 |
| 20260505213419 | 42 | 79 | 7.0 | 11.0 | 0.07 | 0.11 | 0.11 | 89 | 1013.3 |
| 20260505213311 | 42 | 69 | 7.0 | 11.0 | 0.06 | 0.10 | 0.10 | 88 | 1013.3 |
| 20260505212443 | 42 | 57 | 3.0 | 8.0 | 0.04 | 0.08 | 0.08 | 91 | 1013.3 |
| 20260505212312 | 42 | 76 | 3.0 | 5.0 | 0.04 | 0.08 | 0.08 | 91 | 1013.3 |
| 20260505211424 | 42 | 51 | 4.0 | 7.0 | 0.03 | 0.06 | 0.06 | 88 | 1013.3 |
| 20260505211316 | 42 | 84 | 5.0 | 7.0 | 0.03 | 0.06 | 0.06 | 90 | 1013.3 |
| 20260505210429 | 43 | 71 | 5.0 | 7.0 | 0.02 | 0.05 | 0.05 | 90 | 1013.1 |
| 20260505210322 | 43 | 74 | 5.0 | 8.0 | 0.02 | 0.05 | 0.05 | 90 | 1013.2 |
| 20260505205412 | 43 | 61 | 5.0 | 9.0 | 0.02 | 0.05 | 0.05 | 89 | 1013.3 |
| 20260505205348 | 43 | 57 | 5.0 | 9.0 | 0.02 | 0.05 | 0.05 | 89 | 1013.3 |
| 20260505204419 | 43 | 76 | 4.0 | 9.0 | 0.02 | 0.05 | 0.05 | 90 | 1013.3 |
| 20260505204312 | 43 | 55 | 5.0 | 9.0 | 0.02 | 0.05 | 0.05 | 90 | 1013.3 |
| 20260505203423 | 43 | 75 | 5.0 | 9.0 | 0.02 | 0.04 | 0.04 | 89 | 1013.4 |
| 20260505203316 | 43 | 75 | 5.0 | 9.0 | 0.02 | 0.04 | 0.04 | 89 | 1013.4 |
| 20260505202427 | 43 | 55 | 6.0 | 11.0 | 0.03 | 0.04 | 0.04 | 89 | 1013.6 |
| 20260505202340 | 43 | 59 | 5.0 | 11.0 | 0.03 | 0.04 | 0.04 | 90 | 1013.5 |
| 20260505201449 | 43 | 49 | 7.0 | 10.0 | 0.02 | 0.03 | 0.03 | 88 | 1013.5 |
| 20260505201320 | 43 | 56 | 6.0 | 10.0 | 0.02 | 0.03 | 0.03 | 88 | 1013.4 |
| 20260505200432 | 43 | 79 | 7.0 | 10.0 | 0.02 | 0.03 | 0.03 | 88 | 1013.6 |
| 20260505200326 | 43 | 84 | 6.0 | 10.0 | 0.02 | 0.03 | 0.03 | 88 | 1013.6 |
| 20260505195417 | 43 | 76 | 6.0 | 10.0 | 0.02 | 0.03 | 0.03 | 88 | 1013.8 |
| 20260505195311 | 43 | 84 | 6.0 | 10.0 | 0.02 | 0.03 | 0.03 | 88 | 1013.8 |
| 20260505194423 | 43 | 59 | 6.0 | 11.0 | 0.02 | 0.03 | 0.03 | 88 | 1013.7 |
| 20260505194315 | 43 | 71 | 6.0 | 11.0 | 0.02 | 0.03 | 0.03 | 88 | 1013.7 |
| 20260505193427 | 43 | 67 | 6.0 | 10.0 | 0.01 | 0.02 | 0.02 | 88 | 1013.7 |
| 20260505193320 | 43 | 61 | 7.0 | 10.0 | 0.01 | 0.02 | 0.02 | 88 | 1013.8 |
| 20260505192411 | 43 | 44 | 5.0 | 9.0 | 0.00 | 0.01 | 0.01 | 87 | 1013.7 |
| 20260505192328 | 43 | 71 | 6.0 | 9.0 | 0.00 | 0.01 | 0.01 | 87 | 1013.7 |
| 20260505191441 | 43 | 74 | 7.0 | 10.0 | 0.00 | 0.01 | 0.01 | 87 | 1013.7 |
| 20260505191312 | 43 | 79 | 6.0 | 10.0 | 0.00 | 0.01 | 0.01 | 86 | 1013.7 |
| 20260505190424 | 43 | 61 | 7.0 | 12.0 | 0.00 | 0.01 | 0.01 | 86 | 1013.5 |
| 20260505190317 | 43 | 46 | 6.0 | 12.0 | 0.00 | 0.01 | 0.01 | 86 | 1013.5 |
| 20260505185425 | 43 | 79 | 8.0 | 12.0 | 0.00 | 0.01 | 0.01 | 87 | 1013.6 |
| 20260505185317 | 43 | 76 | 9.0 | 12.0 | 0.00 | 0.01 | 0.01 | 87 | 1013.6 |
| 20260505184429 | 43 | 47 | 7.0 | 11.0 | 0.00 | 0.01 | 0.01 | 87 | 1013.7 |
| 20260505184320 | 43 | 73 | 7.0 | 11.0 | 0.00 | 0.01 | 0.01 | 86 | 1013.7 |
| 20260505183411 | 43 | 69 | 6.0 | 12.0 | 0.00 | 0.01 | 0.01 | 89 | 1013.8 |
| 20260505183329 | 43 | 104 | 6.0 | 12.0 | 0.00 | 0.01 | 0.01 | 89 | 1013.8 |
| 20260505182419 | 43 | 61 | 9.0 | 12.0 | 0.00 | 0.01 | 0.01 | 89 | 1014.1 |
| 20260505182312 | 43 | 61 | 8.0 | 12.0 | 0.00 | 0.01 | 0.01 | 89 | 1014.0 |
| 20260505181444 | 43 | 64 | 7.0 | 11.0 | 0.00 | 0.01 | 0.01 | 88 | 1014.1 |
| 20260505181315 | 43 | 69 | 7.0 | 11.0 | 0.00 | 0.01 | 0.01 | 89 | 1014.1 |
| 20260505180421 | 42 | 65 | 9.0 | 12.0 | 0.00 | 0.01 | 0.01 | 88 | 1014.3 |
| 20260505180312 | 43 | 59 | 8.0 | 12.0 | 0.00 | 0.01 | 0.01 | 88 | 1014.4 |
| 20260505175423 | 42 | 59 | 8.0 | 12.0 | 0.00 | 0.01 | 0.01 | 88 | 1014.3 |
| 20260505175317 | 42 | 58 | 8.0 | 12.0 | 0.00 | 0.01 | 0.01 | 88 | 1014.3 |
| 20260505174429 | 42 | 64 | 8.0 | 12.0 | 0.00 | 0.01 | 0.01 | 88 | 1014.3 |
| 20260505174343 | 42 | 57 | 8.0 | 12.0 | 0.00 | 0.01 | 0.01 | 88 | 1014.3 |
| 20260505173413 | 42 | 40 | 7.0 | 12.0 | 0.00 | 0.01 | 0.01 | 87 | 1014.5 |
| 20260505173326 | 42 | 59 | 8.0 | 12.0 | 0.00 | 0.01 | 0.01 | 87 | 1014.5 |
| 20260505172438 | 42 | 47 | 9.0 | 12.0 | 0.00 | 0.01 | 0.01 | 88 | 1014.5 |
| 20260505172329 | 42 | 47 | 8.0 | 12.0 | 0.00 | 0.01 | 0.01 | 89 | 1014.5 |
| 20260505171422 | 42 | 55 | 10.0 | 14.0 | 0.01 | 0.01 | 0.01 | 89 | 1014.5 |
| 20260505171314 | 42 | 57 | 10.0 | 14.0 | 0.01 | 0.01 | 0.01 | 89 | 1014.5 |
| 20260505170426 | 42 | 49 | 7.0 | 14.0 | 0.01 | 0.01 | 0.01 | 90 | 1014.6 |
| 20260505170323 | 42 | 63 | 7.0 | 14.0 | 0.01 | 0.01 | 0.01 | 90 | 1014.7 |
| 20260505165417 | 42 | 55 | 8.0 | 13.0 | 0.01 | 0.01 | 0.01 | 91 | 1014.4 |
| 20260505165349 | 42 | 62 | 7.0 | 13.0 | 0.01 | 0.01 | 0.01 | 91 | 1014.4 |
| 20260505164418 | 41 | 65 | 10.0 | 14.0 | 0.01 | 0.01 | 0.01 | 90 | 1014.5 |
| 20260505164329 | 41 | 59 | 11.0 | 14.0 | 0.01 | 0.01 | 0.01 | 90 | 1014.5 |
| 20260505163421 | 42 | 62 | 11.0 | 15.0 | 0.01 | 0.01 | 0.01 | 89 | 1014.5 |
| 20260505163334 | 42 | 59 | 12.0 | 15.0 | 0.01 | 0.01 | 0.01 | 89 | 1014.5 |
| 20260505162424 | 42 | 61 | 10.0 | 14.0 | 0.01 | 0.01 | 0.01 | 88 | 1014.6 |
| 20260505162317 | 42 | 67 | 9.0 | 13.0 | 0.01 | 0.01 | 0.01 | 87 | 1014.6 |
| 20260505161429 | 42 | 61 | 10.0 | 13.0 | 0.00 | 0.00 | 0.00 | 86 | 1014.7 |
| 20260505161327 | 42 | 53 | 10.0 | 13.0 | 0.00 | 0.00 | 0.00 | 86 | 1014.8 |
| 20260505160417 | 42 | 103 | 10.0 | 13.0 | 0.00 | 0.00 | 0.00 | 85 | 1014.5 |
| 20260505160309 | 42 | 81 | 10.0 | 12.0 | 0.00 | 0.00 | 0.00 | 85 | 1014.5 |
| 20260505153315 | 43 | 53 | 7.0 | 13.0 | 0.00 | 0.00 | 0.00 | 89 | 1014.3 |
| 20260505152448 | 43 | 49 | 5.0 | 9.0 | 0.00 | 0.00 | 0.00 | 90 | 1014.3 |
| 20260505152340 | 43 | 59 | 5.0 | 9.0 | 0.00 | 0.00 | 0.00 | 89 | 1014.3 |
| 20260505151430 | 43 | 51 | 5.0 | 12.0 | 0.00 | 0.00 | 0.00 | 89 | 1014.3 |
| 20260505151322 | 43 | 38 | 5.0 | 12.0 | 0.00 | 0.00 | 0.00 | 89 | 1014.2 |
| 20260505150433 | 43 | 57 | 6.0 | 11.0 | 0.00 | 0.00 | 0.00 | 90 | 1014.2 |
| 20260505150310 | 43 | 53 | 5.0 | 11.0 | 0.00 | 0.00 | 0.00 | 89 | 1014.1 |
| 20260505140418 | 43 | 36 | 7.0 | 14.0 | 0.00 | 0.00 | 0.00 | 90 | 1013.7 |
| 20260505140310 | 43 | 59 | 9.0 | 14.0 | 0.00 | 0.00 | 0.00 | 89 | 1013.7 |